Location: Unspecified
(0.0000°N, 0.0000°E)
Time: 19:53:29
(UTC+00:00)

ISS - Pass Details

Date: 21 June 2019
Orbit: 407 x 419 km, 51.6° (Epoch: 26 June)

Event Time Altitude Azimuth Distance (km) Brightness Sun altitude
Exits shadow 05:26:44 10° 256° (WSW) 1,463 -1.7 -8.0°
Maximum altitude 05:29:14 20° 306° (NW) 1,004 -2.1 -7.4°
Drops below altitude 10° 05:31:44 10° 356° (N) 1,460 -0.7 -6.9°
Sets 05:34:09 0° 13° (NNE) 2,315 0.6 -6.3°
